Regional Weather Roundup
Issued by NWS

Home | Current Version | Previous Version | Graphics & Text | Print | Product List | Glossary On
Versions: 1 2 3 4 5 6 7 8 9 10 11 12 13 14 15 16 17 18 19 20 21 22 23 24 25 26 27 28 29 30 31 32 33 34 35 36 37 38 39 40 41 42 43 44 45 46 47 48 49 50
000
ASUS43 KLOT 010312
RWRIL

ILLINOIS REGIONAL WEATHER ROUNDUP
NATIONAL WEATHER SERVICE CHICAGO/ROMEOVILLE IL
1000 PM CDT FRI JUL 31 2015

NOTE: "FAIR" INDICATES FEW OR NO CLOUDS BELOW 12,000 FEET WITH NO
SIGNIFICANT WEATHER AND/OR OBSTRUCTIONS TO VISIBILITY.

* THESE STATIONS ARE NOT UNDER NWS QUALITY CONTROL. THEY ALSO MAY NOT
  REPORT WEATHER SUCH AS PRECIPITATION OR FOG.

ILZ001-002-007-009-015-016-024-010400-
NORTHWEST ILLINOIS

CITY           SKY/WX    TMP DP  RH WIND       PRES   REMARKS
MOLINE         CLEAR     70  58  65 W6        30.02R
STERLING*      CLEAR     68  55  64 W6        29.99R
SAVANNA*       CLEAR     71  55  56 NW3       30.01R
$$

ILZ003-004-008-010-011-017-018-010400-
NORTH CENTRAL ILLINOIS

CITY           SKY/WX    TMP DP  RH WIND       PRES   REMARKS
ROCKFORD       CLEAR     68  52  56 W6        30.01R
FREEPORT*      CLEAR     63  54  73 W3        30.03R
ROCHELLE*      CLEAR     65  57  77 W5        30.01R
DE KALB*       CLEAR     68  53  58 NW6       30.01R
PERU*          CLEAR     70  58  65 W9        30.02R
$$

ILZ005-006-012>014-019>023-010400-
NORTHEAST ILLINOIS

CITY           SKY/WX    TMP DP  RH WIND       PRES   REMARKS
CHICAGO-OHARE  CLEAR     72  51  47 NW7       29.97R
CHICAGO-MIDWAY PTCLDY    77  49  37 NW6       29.97R
AURORA         CLEAR     62  54  74 W6        29.99R
LANSING*       CLEAR     74  49  40 NW3       29.97R
JOLIET*        CLEAR     73  55  53 CALM      29.99R
WAUKEGAN       CLEAR     65  54  67 CALM      29.96R
DUPAGE AIRPORT CLEAR     69  54  58 W5        29.98R
KANKAKEE*      CLEAR     70  58  66 W3        30.00R
WHEELING       CLEAR     74  49  41 NW6       29.98R
MORRIS*        CLEAR     67  60  78 NW7       29.98R
ROMEOVILLE*    CLEAR     68  52  55 NW7       29.99R
NORTHERLY ISL    N/A     77  46  33 NW7         N/A
$$

LMZ740>746-010400-
SOUTHERN LAKE MICHIGAN

STATION/POSITION SKY/WX   TEMP    WIND        PRES    VSBY  WAVE
                          AIR SEA DIR/SP/G                  HT/PER
                          (F)     (DEG/KT/KT) (MB)    (MI)  (FT/S)
HARRISON CRIB              78     310/ 12/ 13   N/A
BURNHAM HARBOR             77     280/  5/ 11   N/A
CALUMET HARBOR             79     300/  6/  9   N/A
BURNS HARBOR               76     340/ 10/ 12 1014.6R
MICHIGAN CITY              74     320/  9/ 10   N/A
MICHIGAN CITY 6N           76 74  320/ 10/ 12   N/A           2/ 5
ST. JOSEPH                 74 74  320/  8/  8   N/A           2/ 5
$$

ILZ025>027-034>036-040-047-049-050-058-095>099-010400-
WEST-CENTRAL ILLINOIS

CITY           SKY/WX    TMP DP  RH WIND       PRES   REMARKS
QUINCY         MOCLDY    75  69  81 NE6       30.04R
GALESBURG*     CLEAR     70  60  69 W5        30.05R
MACOMB*        CLEAR     71  65  82 N5        30.06R
JACKSONVILLE*  MOCLDY    75  70  85 N9        30.03R
PITTSFIELD*    PTCLDY    75  70  84 CALM      30.05R
$$

ILZ028>032-037-038-041>044-048-051>054-059>061-010400-
CENTRAL ILLINOIS

CITY           SKY/WX    TMP DP  RH WIND       PRES   REMARKS
PONTIAC        CLEAR     68  64  85 W6        30.01R
BLOOMINGTON    CLEAR     77  61  57 NW9       30.04R
DECATUR        CLEAR     78  59  51 W3        30.02R
PEORIA         CLEAR     76  64  66 NW3       30.03R
LACON*         CLEAR     74  56  52 NW6       30.01R
LINCOLN*       PTCLDY    77  63  62 CALM      30.02R
SPRINGFIELD    PTCLDY    75  70  84 W6        30.03R
TAYLORVILLE    PTCLDY    72  70  94 W7        30.03R
$$

ILZ033-039-045-046-055>057-062-063-010400-
EAST-CENTRAL ILLINOIS

CITY           SKY/WX    TMP DP  RH WIND       PRES   REMARKS
CHAMPAIGN      CLEAR     72  63  73 NW6       30.02R
DANVILLE*      CLEAR     71  62  74 W7        29.98R
RANTOUL*       CLEAR     72  65  80 W5        30.01R
MATTOON        CLEAR     74  63  68 W5        30.01R
PARIS*         CLEAR     69  64  83 W5        30.02R
$$

ILZ079-100>102-010400-
SOUTHWEST ILLINOIS

CITY           SKY/WX    TMP DP  RH WIND       PRES   REMARKS
ALTON          PTCLDY    72  68  88 CALM      30.03
BELLEVILLE     CLEAR     75  72  90 CALM      30.02R
CAHOKIA*       CLEAR     75  66  73 S3        30.02R
SPARTA*        CLEAR     78  69  73 CALM      30.05R
$$

ILZ064>066-069>071-074>076-080>082-084>086-088>090-092>094-010400-
SOUTH-CENTRAL ILLINOIS

CITY           SKY/WX    TMP DP  RH WIND       PRES   REMARKS
CARBONDALE     CLEAR     76  72  87 S3        30.03R
CAIRO*         CLEAR     74  72  95 CALM      30.04R
EFFINGHAM*     PTCLDY    74  68  81 CALM      30.04R
MARION         CLEAR     77  70  78 CALM      30.04R
MT. VERNON     CLEAR     72  64  78 N3        30.04R
CENTRALIA*     CLEAR     71  67  87 CALM      30.03S
SALEM*         CLEAR     73  69  87 CALM      30.03R
METROPOLIS*    CLEAR     74  74 100 CALM      30.05R
$$

ILZ067-068-072-073-078-083-087-091-010400-
SOUTHEAST ILLINOIS

CITY           SKY/WX    TMP DP  RH WIND       PRES   REMARKS
LAWRENCEVILLE  PTCLDY    75  70  84 CALM      30.02R
FLORA*         PTCLDY    73  69  87 SW3       30.03R
FAIRFIELD*     PTCLDY    73  70  90 CALM      30.02R
HARRISBURG*    CLEAR     74  72  93 CALM      30.04R
ROBINSON*      PTCLDY    70  68  93 CALM      30.02R
CARMI*         CLEAR     73  67  82 CALM      30.02R
$$

ABBREVIATIONS USED IN REMARKS
   TC - TEMPERATURE IN CELSIUS
  WCI - WIND CHILL INDEX
   HX - HEAT INDEX
  VSB - VISIBILITY
$$



USA.gov is the U.S. government's official web portal to all federal, state and local government web resources and services.